TimeGMT,TemperatureF,Dew PointF,Humidity,Sea Level PressureIn,VisibilityMPH,Wind Direction,Wind SpeedMPH,Gust SpeedMPH,PrecipitationIn,Events,Conditions,WindDirDegrees,DateUTC
12:20 AM,33.8,30.2,87,29.92,6.2,South,8.1,-,N/A,,Mostly Cloudy,170,2012-12-03 00:20:00
12:50 AM,33.8,30.2,87,29.92,5.6,SSE,8.1,-,N/A,Rain,Light Rain,160,2012-12-03 00:50:00
1:20 AM,33.8,30.2,87,29.89,5.0,SSE,9.2,-,N/A,Rain,Light Rain,160,2012-12-03 01:20:00
1:50 AM,33.8,32.0,93,29.86,5.0,SSE,9.2,-,N/A,Rain,Light Rain,160,2012-12-03 01:50:00
2:20 AM,33.8,32.0,93,29.86,3.7,SSE,10.4,-,N/A,Rain,Light Rain,150,2012-12-03 02:20:00
2:50 AM,35.6,33.8,93,29.83,3.1,SSE,11.5,-,N/A,Rain,Light Rain,160,2012-12-03 02:50:00
3:20 AM,35.6,33.8,93,29.80,-9999.0,SSE,9.2,-,N/A,Rain,Light Rain,160,2012-12-03 03:20:00
3:50 AM,35.6,35.6,100,29.77,-9999.0,SSE,9.2,-,N/A,Rain,Light Rain,160,2012-12-03 03:50:00
4:20 AM,35.6,35.6,100,29.74,1.6,SSE,10.4,-,N/A,Rain,Light Rain,160,2012-12-03 04:20:00
4:50 AM,37.4,35.6,93,29.74,0.9,South,8.1,-,N/A,,Heavy Drizzle,170,2012-12-03 04:50:00
5:20 AM,39.2,37.4,93,29.71,0.8,South,9.2,-,N/A,,Heavy Drizzle,190,2012-12-03 05:20:00
5:50 AM,41.0,39.2,93,29.71,0.6,SW,9.2,-,N/A,,Light Drizzle,220,2012-12-03 05:50:00
6:20 AM,41.0,41.0,100,29.68,0.3,WSW,10.4,-,N/A,Rain,Rain,240,2012-12-03 06:20:00
6:50 AM,42.8,42.8,100,29.68,2.5,West,9.2,-,N/A,,Overcast,260,2012-12-03 06:50:00
7:20 AM,42.8,42.8,100,29.68,-9999.0,West,6.9,-,N/A,,Mostly Cloudy,270,2012-12-03 07:20:00
7:50 AM,44.6,42.8,93,29.68,-9999.0,West,6.9,-,N/A,,Mostly Cloudy,270,2012-12-03 07:50:00
8:20 AM,44.6,42.8,93,29.68,-9999.0,West,5.8,-,N/A,,Overcast,260,2012-12-03 08:20:00
8:50 AM,44.6,44.6,100,29.68,1.0,SW,6.9,-,N/A,,Mostly Cloudy,220,2012-12-03 08:50:00
9:20 AM,46.4,44.6,93,29.68,1.1,WSW,6.9,-,N/A,Rain,Light Rain,250,2012-12-03 09:20:00
9:50 AM,44.6,44.6,100,29.68,0.6,SW,6.9,-,N/A,Rain,Light Rain,220,2012-12-03 09:50:00
10:20 AM,46.4,44.6,93,29.68,0.9,WSW,6.9,-,N/A,Rain,Light Rain,240,2012-12-03 10:20:00
10:50 AM,46.4,44.6,93,29.68,6.2,WNW,8.1,-,N/A,Rain,Light Rain,290,2012-12-03 10:50:00
11:20 AM,46.4,44.6,93,29.68,6.2,West,6.9,-,N/A,,Mostly Cloudy,280,2012-12-03 11:20:00
11:50 AM,46.4,44.6,93,29.68,6.2,West,8.1,-,N/A,,Mostly Cloudy,280,2012-12-03 11:50:00
12:20 PM,46.4,44.6,93,29.68,5.6,West,6.9,-,N/A,Rain,Light Rain,280,2012-12-03 12:20:00
12:50 PM,44.6,41.0,87,29.71,6.2,NW,11.5,-,N/A,,Mostly Cloudy,310,2012-12-03 12:50:00
1:20 PM,46.4,42.8,87,29.71,6.2,WNW,10.4,-,N/A,,Scattered Clouds,300,2012-12-03 13:20:00
1:50 PM,46.4,39.2,76,29.71,6.2,WNW,13.8,-,N/A,,Scattered Clouds,290,2012-12-03 13:50:00
2:20 PM,44.6,37.4,76,29.71,6.2,West,13.8,-,N/A,,Partly Cloudy,280,2012-12-03 14:20:00
2:50 PM,44.6,37.4,76,29.71,6.2,West,12.7,-,N/A,,Partly Cloudy,280,2012-12-03 14:50:00
3:20 PM,42.8,35.6,76,29.71,-9999.0,West,12.7,-,N/A,,Clear,270,2012-12-03 15:20:00
3:50 PM,42.8,35.6,76,29.68,-9999.0,West,10.4,-,N/A,,Clear,260,2012-12-03 15:50:00
4:20 PM,41.0,35.6,81,29.68,-9999.0,West,8.1,-,N/A,,Clear,270,2012-12-03 16:20:00
4:50 PM,39.2,33.8,81,29.68,-9999.0,West,8.1,-,N/A,,Clear,260,2012-12-03 16:50:00
5:20 PM,41.0,35.6,81,29.68,6.2,WSW,9.2,-,N/A,,Scattered Clouds,250,2012-12-03 17:20:00
5:50 PM,39.2,35.6,87,29.68,6.2,WSW,10.4,-,N/A,,Scattered Clouds,250,2012-12-03 17:50:00
6:20 PM,39.2,35.6,87,29.68,-9999.0,WSW,10.4,-,N/A,,Clear,250,2012-12-03 18:20:00
6:50 PM,39.2,35.6,87,29.65,-9999.0,WSW,9.2,-,N/A,,Clear,250,2012-12-03 18:50:00
7:20 PM,39.2,35.6,87,29.65,-9999.0,WSW,9.2,-,N/A,,Clear,250,2012-12-03 19:20:00
7:50 PM,37.4,33.8,87,29.65,-9999.0,WSW,8.1,-,N/A,,Clear,250,2012-12-03 19:50:00
8:20 PM,37.4,33.8,87,29.65,-9999.0,Variable,2.3,-,N/A,,Clear,0,2012-12-03 20:20:00
8:50 PM,35.6,32.0,87,29.65,-9999.0,SW,6.9,-,N/A,,Clear,220,2012-12-03 20:50:00
9:20 PM,35.6,32.0,87,29.62,-9999.0,WSW,6.9,-,N/A,,Clear,240,2012-12-03 21:20:00
9:50 PM,35.6,32.0,87,29.62,-9999.0,WSW,6.9,-,N/A,,Clear,240,2012-12-03 21:50:00
10:20 PM,35.6,32.0,87,29.62,-9999.0,West,5.8,-,N/A,,Clear,260,2012-12-03 22:20:00
10:50 PM,35.6,32.0,87,29.62,-9999.0,WSW,5.8,-,N/A,,Clear,250,2012-12-03 22:50:00
11:20 PM,35.6,32.0,87,29.62,-9999.0,WSW,6.9,-,N/A,,Clear,250,2012-12-03 23:20:00
11:50 PM,33.8,32.0,93,29.62,-9999.0,WSW,8.1,-,N/A,,Clear,240,2012-12-03 23:50:00